{"data":{"norad_id":48431,"intl_designator":"2021-040D","name":"STARLINK-2700","alt_names":[],"object_type":"PAYLOAD","status":"ACTIVE","operator":null,"country":"US","launch_date":"2021-05-09","launch_site_code":"AFETR","launch_vehicle":null,"mission":null,"orbit_class":"UNKNOWN","rcs_meters":null,"size_class":null,"mass_kg":null,"dimensions":null,"purposes":["comms"],"wikipedia_slug":null,"has_3d_model":false,"image_url":null,"decayed_at":null,"tle_current":{"epoch":"2026-05-25T00:46:02.240832Z","epoch_age_seconds":75449,"freshness":"FRESH","line1":"1 48431U 21040D   26145.03197038  .00001731  00000+0  67529-4 0  9990","line2":"2 48431  53.1601 157.7307 0001464  86.6479 273.4689 15.31703090278727","mean_motion":15.3170309,"eccentricity":0.0001464,"inclination_deg":53.1601,"raan_deg":157.7307,"arg_perigee_deg":86.6479,"mean_anomaly_deg":273.4689,"bstar":6.7529e-5,"rev_number":27872,"period_min":94.012998302432,"perigee_km":469.72810986833,"apogee_km":471.73345835552,"semimajor_km":6848.8677841119,"source":"CELESTRAK","updated_at":"2026-05-25T13:38:16.714012Z"}}}